• In Hungary
  • List of Countries
  • For 7 days
  • Water Temperature
  • Satellite Maps
  • Weather Map
  • News
  • Weather Widgets
  • user-avatar
    Login

    Hourly Weather Iovlevo

    Today, 23 April, Monday

    Time Temperature Precipitation Wind Pressure Humidity
    00:00 -2°C° 0 mm 2 mps 742 mmHg 78%
    01:00 -2°C° 0 mm 2 mps 742 mmHg 80%
    02:00 -3°C° 0 mm 2 mps 742 mmHg 81%
    03:00 -3°C° 0 mm 2 mps 743 mmHg 80%
    04:00 -3°C° 0 mm 2 mps 743 mmHg 79%
    05:00 -3°C° 0 mm 2 mps 743 mmHg 78%
    06:00 -1°C° 0 mm 3 mps 744 mmHg 68%
    07:00 0°C° 0 mm 3 mps 744 mmHg 59%
    08:00 +2°C° 0 mm 3 mps 744 mmHg 49%
    09:00 +3°C° 0 mm 3 mps 744 mmHg 45%
    10:00 +4°C° 0 mm 3 mps 744 mmHg 42%
    11:00 +5°C° 0 mm 3 mps 744 mmHg 39%
    12:00 +7°C° 0 mm 3 mps 744 mmHg 38%
    13:00 +7°C° 0 mm 3 mps 744 mmHg 37%
    14:00 +8°C° 0 mm 3 mps 744 mmHg 37%
    15:00 +7°C° 0 mm 2 mps 744 mmHg 38%
    16:00 +7°C° 0 mm 2 mps 744 mmHg 39%
    17:00 +7°C° 0 mm 2 mps 743 mmHg 41%
    18:00 +5°C° 0 mm 2 mps 744 mmHg 47%
    19:00 +5°C° 0 mm 1 mps 744 mmHg 53%
    20:00 +3°C° 0 mm 1 mps 744 mmHg 60%
    21:00 +1°C° 0 mm 0 mps 744 mmHg 61%
    22:00 +1°C° 0 mm 0 mps 744 mmHg 63%
    23:00 0°C° 0 mm 0 mps 744 mmHg 64%

    Tomorrow, 24 April, Tuesday

    Time Temperature Precipitation Wind Pressure Humidity
    00:00 0°C° 0 mm 0 mps 744 mmHg 65%
    01:00 +1°C° 0 mm 1 mps 743 mmHg 66%
    02:00 +1°C° 0 mm 1 mps 743 mmHg 66%
    03:00 +1°C° 0 mm 1 mps 743 mmHg 66%
    04:00 +1°C° 0 mm 1 mps 743 mmHg 66%
    05:00 +1°C° 0 mm 1 mps 743 mmHg 66%
    06:00 +2°C° 0 mm 2 mps 743 mmHg 60%
    07:00 +4°C° 0 mm 2 mps 743 mmHg 54%
    08:00 +6°C° 0 mm 2 mps 742 mmHg 48%
    09:00 +8°C° 0 mm 2 mps 742 mmHg 46%
    10:00 +9°C° 0 mm 3 mps 742 mmHg 44%
    11:00 +10°C° 0 mm 3 mps 741 mmHg 43%
    12:00 +11°C° 0 mm 3 mps 741 mmHg 45%
    13:00 +11°C° 0 mm 3 mps 740 mmHg 47%
    14:00 +11°C° 0 mm 3 mps 740 mmHg 49%
    15:00 +10°C° 0.1 mm 3 mps 739 mmHg 56%
    16:00 +10°C° 0.1 mm 3 mps 739 mmHg 63%
    17:00 +9°C° 0.1 mm 2 mps 739 mmHg 70%
    18:00 +8°C° 0.3 mm 2 mps 738 mmHg 74%
    19:00 +7°C° 0.3 mm 3 mps 738 mmHg 79%
    20:00 +7°C° 0.3 mm 3 mps 738 mmHg 84%
    21:00 +7°C° 0.3 mm 3 mps 737 mmHg 87%
    22:00 +7°C° 0.3 mm 2 mps 737 mmHg 90%
    23:00 +6°C° 0.3 mm 2 mps 737 mmHg 93%

    Day after tomorrow, 25 April, Wednesday

    Time Temperature Precipitation Wind Pressure Humidity
    00:00 +6°C° 0 mm 2 mps 737 mmHg 95%
    01:00 +6°C° 0 mm 2 mps 736 mmHg 96%
    02:00 +5°C° 0 mm 2 mps 736 mmHg 97%
    03:00 +5°C° 0 mm 2 mps 736 mmHg 97%
    04:00 +5°C° 0 mm 2 mps 736 mmHg 97%
    05:00 +6°C° 0 mm 2 mps 736 mmHg 97%
    06:00 +6°C° 0 mm 2 mps 736 mmHg 93%
    07:00 +7°C° 0 mm 3 mps 736 mmHg 89%
    08:00 +8°C° 0 mm 3 mps 736 mmHg 85%
    09:00 +8°C° 0.2 mm 4 mps 736 mmHg 84%
    10:00 +8°C° 0.2 mm 4 mps 735 mmHg 83%
    11:00 +8°C° 0.2 mm 4 mps 735 mmHg 82%
    12:00 +9°C° 0.3 mm 5 mps 735 mmHg 76%
    13:00 +9°C° 0.3 mm 5 mps 735 mmHg 70%
    14:00 +10°C° 0.3 mm 5 mps 735 mmHg 65%
    15:00 +10°C° 0.1 mm 5 mps 735 mmHg 65%
    16:00 +11°C° 0.1 mm 4 mps 735 mmHg 64%
    17:00 +11°C° 0.1 mm 4 mps 735 mmHg 64%
    18:00 +9°C° 0 mm 3 mps 735 mmHg 71%
    19:00 +8°C° 0 mm 3 mps 736 mmHg 77%
    20:00 +6°C° 0 mm 2 mps 736 mmHg 84%
    21:00 +6°C° 0 mm 2 mps 736 mmHg 85%
    22:00 +6°C° 0 mm 2 mps 736 mmHg 87%
    23:00 +5°C° 0 mm 2 mps 736 mmHg 88%

    26 April, Thursday

    Time Temperature Precipitation Wind Pressure Humidity
    00:00 +5°C° 0 mm 2 mps 735 mmHg 89%
    01:00 +5°C° 0 mm 2 mps 735 mmHg 90%
    02:00 +6°C° 0 mm 1 mps 735 mmHg 90%
    03:00 +6°C° 0.1 mm 1 mps 735 mmHg 91%
    04:00 +6°C° 0.1 mm 1 mps 734 mmHg 92%
    05:00 +6°C° 0.1 mm 1 mps 734 mmHg 92%
    06:00 +7°C° 0.2 mm 1 mps 734 mmHg 90%
    07:00 +8°C° 0.2 mm 1 mps 734 mmHg 88%
    08:00 +8°C° 0.2 mm 1 mps 734 mmHg 86%
    09:00 +8°C° 0.2 mm 2 mps 734 mmHg 83%
    10:00 +9°C° 0.2 mm 2 mps 734 mmHg 81%
    11:00 +9°C° 0.2 mm 2 mps 734 mmHg 78%
    12:00 +10°C° 0.3 mm 3 mps 734 mmHg 74%
    13:00 +11°C° 0.3 mm 4 mps 734 mmHg 70%
    14:00 +11°C° 0.3 mm 4 mps 735 mmHg 67%
    15:00 +11°C° 0.2 mm 4 mps 735 mmHg 66%
    16:00 +11°C° 0.2 mm 4 mps 735 mmHg 66%
    17:00 +11°C° 0.2 mm 4 mps 736 mmHg 65%
    18:00 +9°C° 0 mm 3 mps 736 mmHg 71%
    19:00 +8°C° 0 mm 3 mps 737 mmHg 77%
    20:00 +7°C° 0 mm 2 mps 738 mmHg 83%
    21:00 +6°C° 0 mm 2 mps 738 mmHg 84%
    22:00 +6°C° 0 mm 2 mps 738 mmHg 85%
    23:00 +5°C° 0 mm 2 mps 739 mmHg 87%

    27 April, Friday

    Time Temperature Precipitation Wind Pressure Humidity
    00:00 +5°C° 0 mm 2 mps 739 mmHg 87%
    01:00 +5°C° 0 mm 2 mps 739 mmHg 88%
    02:00 +4°C° 0 mm 2 mps 739 mmHg 89%
    03:00 +4°C° 0 mm 2 mps 740 mmHg 89%
    04:00 +4°C° 0 mm 2 mps 740 mmHg 89%
    05:00 +3°C° 0 mm 3 mps 740 mmHg 90%
    06:00 +5°C° 0 mm 3 mps 740 mmHg 83%
    07:00 +8°C° 0 mm 3 mps 740 mmHg 76%
    08:00 +9°C° 0 mm 3 mps 741 mmHg 69%
    09:00 +10°C° 0 mm 4 mps 741 mmHg 63%
    10:00 +12°C° 0 mm 4 mps 741 mmHg 57%
    11:00 +13°C° 0 mm 4 mps 741 mmHg 51%
    12:00 +12°C° 0.3 mm 4 mps 741 mmHg 54%
    13:00 +12°C° 0.3 mm 4 mps 741 mmHg 58%
    14:00 +11°C° 0.3 mm 3 mps 740 mmHg 62%
    15:00 +11°C° 0.2 mm 3 mps 740 mmHg 64%
    16:00 +11°C° 0.2 mm 3 mps 740 mmHg 66%
    17:00 +11°C° 0.2 mm 3 mps 740 mmHg 67%
    18:00 +10°C° 0.2 mm 2 mps 740 mmHg 73%
    19:00 +8°C° 0.2 mm 2 mps 741 mmHg 78%
    20:00 +7°C° 0.2 mm 2 mps 741 mmHg 84%
    21:00 +7°C° 0 mm 2 mps 741 mmHg 85%
    22:00 +6°C° 0 mm 2 mps 741 mmHg 86%
    23:00 +6°C° 0 mm 2 mps 742 mmHg 88%

    28 April, Saturday

    Time Temperature Precipitation Wind Pressure Humidity
    00:00 +5°C° 0 mm 2 mps 742 mmHg 88%
    01:00 +4°C° 0 mm 3 mps 742 mmHg 89%
    02:00 +4°C° 0 mm 3 mps 743 mmHg 90%
    03:00 +3°C° 0 mm 3 mps 743 mmHg 91%
    04:00 +3°C° 0 mm 3 mps 743 mmHg 92%
    05:00 +3°C° 0 mm 3 mps 744 mmHg 94%
    06:00 +4°C° 0 mm 3 mps 744 mmHg 88%
    07:00 +5°C° 0 mm 4 mps 745 mmHg 83%
    08:00 +7°C° 0 mm 4 mps 745 mmHg 77%
    09:00 +8°C° 0.1 mm 4 mps 745 mmHg 71%
    10:00 +9°C° 0.1 mm 5 mps 746 mmHg 64%
    11:00 +10°C° 0.1 mm 5 mps 746 mmHg 57%
    12:00 +12°C° 0 mm 5 mps 746 mmHg 53%
    13:00 +12°C° 0 mm 5 mps 746 mmHg 48%
    14:00 +13°C° 0 mm 5 mps 746 mmHg 43%
    15:00 +13°C° 0 mm 4 mps 746 mmHg 45%
    16:00 +13°C° 0 mm 4 mps 746 mmHg 47%
    17:00 +12°C° 0 mm 4 mps 746 mmHg 49%
    18:00 +11°C° 0 mm 3 mps 747 mmHg 56%
    19:00 +9°C° 0 mm 3 mps 747 mmHg 64%
    20:00 +7°C° 0 mm 2 mps 747 mmHg 71%
    21:00 +7°C° 0 mm 2 mps 748 mmHg 74%
    22:00 +6°C° 0 mm 2 mps 748 mmHg 77%
    23:00 +6°C° 0 mm 2 mps 748 mmHg 80%
    Show more